When you browse on this site, cookies collect data to enhance your experience and personalize the content and advertising you see.
Visit our Privacy Policy to learn more. By continuing to use the site, you agree to this use of cookies and data.
  • In Spain
  • List of Countries
  • For 7 days
  • Water Temperature
  • Weather Map
  • Weather Widgets
  • user-avatar
    Login

    Hourly Weather Cairo

    Today, 21 October, Monday

    Time Temperature Precipitation Wind Pressure Humidity
    00:00 +27°C° 0 mm 5 mps 757 mmHg 43%
    01:00 +26°C° 0 mm 4 mps 757 mmHg 43%
    02:00 +26°C° 0 mm 3 mps 756 mmHg 44%
    03:00 +25°C° 0 mm 3 mps 756 mmHg 44%
    04:00 +25°C° 0 mm 2 mps 756 mmHg 44%
    05:00 +25°C° 0 mm 2 mps 757 mmHg 44%
    06:00 +26°C° 0 mm 2 mps 757 mmHg 39%
    07:00 +28°C° 0 mm 2 mps 757 mmHg 35%
    08:00 +29°C° 0 mm 2 mps 757 mmHg 31%
    09:00 +31°C° 0 mm 2 mps 757 mmHg 28%
    10:00 +32°C° 0 mm 2 mps 757 mmHg 25%
    11:00 +34°C° 0 mm 1 mps 757 mmHg 22%
    12:00 +36°C° 0 mm 2 mps 756 mmHg 21%
    13:00 +36°C° 0 mm 2 mps 755 mmHg 20%
    14:00 +37°C° 0 mm 2 mps 754 mmHg 19%
    15:00 +36°C° 0 mm 2 mps 754 mmHg 21%
    16:00 +35°C° 0 mm 2 mps 754 mmHg 23%
    17:00 +34°C° 0 mm 3 mps 754 mmHg 25%
    18:00 +32°C° 0 mm 4 mps 754 mmHg 34%
    19:00 +29°C° 0 mm 5 mps 754 mmHg 43%
    20:00 +27°C° 0 mm 6 mps 754 mmHg 53%
    21:00 +26°C° 0 mm 5 mps 755 mmHg 55%
    22:00 +26°C° 0 mm 5 mps 755 mmHg 57%
    23:00 +25°C° 0 mm 4 mps 755 mmHg 59%

    Tomorrow, 22 October, Tuesday

    Time Temperature Precipitation Wind Pressure Humidity
    00:00 +25°C° 0 mm 5 mps 754 mmHg 61%
    01:00 +23°C° 0 mm 5 mps 754 mmHg 64%
    02:00 +23°C° 0 mm 5 mps 754 mmHg 66%
    03:00 +23°C° 0 mm 5 mps 754 mmHg 67%
    04:00 +22°C° 0 mm 5 mps 754 mmHg 69%
    05:00 +22°C° 0 mm 5 mps 754 mmHg 70%
    06:00 +23°C° 0 mm 5 mps 754 mmHg 64%
    07:00 +25°C° 0 mm 5 mps 754 mmHg 58%
    08:00 +26°C° 0 mm 6 mps 754 mmHg 52%
    09:00 +28°C° 0 mm 5 mps 754 mmHg 46%
    10:00 +30°C° 0 mm 5 mps 754 mmHg 39%
    11:00 +32°C° 0 mm 5 mps 754 mmHg 33%
    12:00 +33°C° 0 mm 5 mps 754 mmHg 32%
    13:00 +33°C° 0 mm 5 mps 753 mmHg 31%
    14:00 +34°C° 0 mm 5 mps 753 mmHg 30%
    15:00 +32°C° 0.4 mm 6 mps 753 mmHg 37%
    16:00 +29°C° 0.4 mm 7 mps 753 mmHg 44%
    17:00 +27°C° 0.4 mm 8 mps 753 mmHg 50%
    18:00 +26°C° 0.3 mm 7 mps 753 mmHg 55%
    19:00 +25°C° 0.3 mm 5 mps 754 mmHg 59%
    20:00 +23°C° 0.3 mm 4 mps 754 mmHg 63%
    21:00 +23°C° 0.2 mm 4 mps 754 mmHg 65%
    22:00 +23°C° 0.2 mm 4 mps 754 mmHg 66%
    23:00 +22°C° 0.2 mm 4 mps 754 mmHg 67%

    Day after tomorrow, 23 October, Wednesday

    Time Temperature Precipitation Wind Pressure Humidity
    00:00 +22°C° 0 mm 3 mps 754 mmHg 71%
    01:00 +21°C° 0 mm 3 mps 754 mmHg 74%
    02:00 +21°C° 0 mm 3 mps 754 mmHg 77%
    03:00 +21°C° 0 mm 2 mps 754 mmHg 79%
    04:00 +20°C° 0 mm 2 mps 754 mmHg 81%
    05:00 +20°C° 0 mm 2 mps 754 mmHg 83%
    06:00 +21°C° 0 mm 2 mps 754 mmHg 79%
    07:00 +23°C° 0 mm 2 mps 755 mmHg 75%
    08:00 +23°C° 0 mm 2 mps 755 mmHg 71%
    09:00 +25°C° 0 mm 2 mps 755 mmHg 62%
    10:00 +27°C° 0 mm 2 mps 755 mmHg 54%
    11:00 +28°C° 0 mm 3 mps 755 mmHg 45%
    12:00 +29°C° 0 mm 3 mps 754 mmHg 39%
    13:00 +30°C° 0 mm 3 mps 754 mmHg 33%
    14:00 +31°C° 0 mm 3 mps 753 mmHg 28%
    15:00 +31°C° 0 mm 3 mps 753 mmHg 27%
    16:00 +30°C° 0 mm 3 mps 754 mmHg 27%
    17:00 +30°C° 0 mm 4 mps 754 mmHg 27%
    18:00 +28°C° 0 mm 4 mps 754 mmHg 36%
    19:00 +27°C° 0 mm 5 mps 754 mmHg 45%
    20:00 +25°C° 0 mm 5 mps 755 mmHg 55%
    21:00 +25°C° 0 mm 4 mps 755 mmHg 58%
    22:00 +23°C° 0 mm 4 mps 755 mmHg 61%
    23:00 +24°C° 0 mm 3 mps 755 mmHg 65%

    24 October, Thursday

    Time Temperature Precipitation Wind Pressure Humidity
    00:00 +23°C° 0 mm 2 mps 755 mmHg 67%
    01:00 +23°C° 0 mm 2 mps 755 mmHg 70%
    02:00 +21°C° 0 mm 2 mps 755 mmHg 72%
    03:00 +21°C° 0 mm 2 mps 755 mmHg 74%
    04:00 +20°C° 0 mm 2 mps 755 mmHg 75%
    05:00 +21°C° 0 mm 1 mps 755 mmHg 77%
    06:00 +22°C° 0 mm 1 mps 755 mmHg 73%
    07:00 +23°C° 0 mm 1 mps 755 mmHg 70%
    08:00 +24°C° 0 mm 1 mps 756 mmHg 66%
    09:00 +25°C° 0 mm 1 mps 756 mmHg 58%
    10:00 +26°C° 0 mm 2 mps 756 mmHg 49%
    11:00 +28°C° 0 mm 2 mps 756 mmHg 41%
    12:00 +29°C° 0 mm 2 mps 755 mmHg 37%
    13:00 +29°C° 0 mm 2 mps 755 mmHg 32%
    14:00 +30°C° 0 mm 2 mps 754 mmHg 28%
    15:00 +30°C° 0 mm 3 mps 754 mmHg 29%
    16:00 +29°C° 0 mm 3 mps 754 mmHg 29%
    17:00 +29°C° 0 mm 3 mps 754 mmHg 30%
    18:00 +27°C° 0.1 mm 4 mps 755 mmHg 37%
    19:00 +26°C° 0.1 mm 4 mps 755 mmHg 43%
    20:00 +25°C° 0.1 mm 4 mps 755 mmHg 50%
    21:00 +23°C° 0 mm 4 mps 756 mmHg 54%
    22:00 +24°C° 0 mm 3 mps 756 mmHg 58%
    23:00 +23°C° 0 mm 2 mps 756 mmHg 63%

    25 October, Friday

    Time Temperature Precipitation Wind Pressure Humidity
    00:00 +23°C° 0 mm 2 mps 756 mmHg 64%
    01:00 +21°C° 0 mm 2 mps 756 mmHg 66%
    02:00 +22°C° 0 mm 1 mps 755 mmHg 68%
    03:00 +21°C° 0 mm 2 mps 755 mmHg 70%
    04:00 +20°C° 0 mm 2 mps 755 mmHg 72%
    05:00 +20°C° 0 mm 2 mps 755 mmHg 73%
    06:00 +21°C° 0 mm 2 mps 756 mmHg 70%
    07:00 +23°C° 0 mm 2 mps 756 mmHg 67%
    08:00 +23°C° 0 mm 2 mps 757 mmHg 63%
    09:00 +25°C° 0 mm 2 mps 757 mmHg 57%
    10:00 +26°C° 0 mm 2 mps 757 mmHg 50%
    11:00 +27°C° 0 mm 2 mps 757 mmHg 44%
    12:00 +28°C° 0 mm 2 mps 756 mmHg 40%
    13:00 +29°C° 0 mm 2 mps 756 mmHg 36%
    14:00 +30°C° 0 mm 2 mps 756 mmHg 32%
    15:00 +29°C° 0 mm 3 mps 756 mmHg 32%
    16:00 +29°C° 0 mm 3 mps 756 mmHg 32%
    17:00 +29°C° 0 mm 4 mps 756 mmHg 31%
    18:00 +27°C° 0 mm 4 mps 756 mmHg 40%
    19:00 +26°C° 0 mm 5 mps 756 mmHg 48%
    20:00 +25°C° 0 mm 5 mps 757 mmHg 57%
    21:00 +23°C° 0 mm 5 mps 757 mmHg 62%
    22:00 +22°C° 0 mm 4 mps 757 mmHg 67%
    23:00 +22°C° 0 mm 3 mps 757 mmHg 72%

    26 October, Saturday

    Time Temperature Precipitation Wind Pressure Humidity
    00:00 +21°C° 0 mm 3 mps 757 mmHg 75%
    01:00 +21°C° 0 mm 2 mps 757 mmHg 77%
    02:00 +21°C° 0 mm 2 mps 757 mmHg 80%
    03:00 +20°C° 0 mm 2 mps 757 mmHg 82%
    04:00 +20°C° 0 mm 2 mps 757 mmHg 83%
    05:00 +21°C° 0 mm 1 mps 757 mmHg 85%
    06:00 +21°C° 0 mm 2 mps 757 mmHg 81%
    07:00 +21°C° 0 mm 2 mps 757 mmHg 78%
    08:00 +23°C° 0 mm 2 mps 758 mmHg 74%
    09:00 +25°C° 0 mm 2 mps 758 mmHg 66%
    10:00 +26°C° 0 mm 2 mps 758 mmHg 58%
    11:00 +27°C° 0 mm 3 mps 758 mmHg 49%
    12:00 +28°C° 0 mm 3 mps 757 mmHg 44%
    13:00 +29°C° 0 mm 3 mps 757 mmHg 39%
    14:00 +30°C° 0 mm 4 mps 756 mmHg 34%
    15:00 +30°C° 0 mm 4 mps 756 mmHg 34%
    16:00 +29°C° 0 mm 3 mps 756 mmHg 35%
    17:00 +29°C° 0 mm 3 mps 756 mmHg 35%
    18:00 +28°C° 0 mm 4 mps 756 mmHg 44%
    19:00 +26°C° 0 mm 5 mps 757 mmHg 54%
    20:00 +25°C° 0 mm 5 mps 757 mmHg 63%
    21:00 +23°C° 0 mm 5 mps 757 mmHg 67%
    22:00 +23°C° 0 mm 4 mps 757 mmHg 70%
    23:00 +22°C° 0 mm 4 mps 757 mmHg 73%

    27 October, Sunday

    Time Temperature Precipitation Wind Pressure Humidity
    00:00 +22°C° 0 mm 3 mps 757 mmHg 75%
    01:00 +21°C° 0 mm 3 mps 757 mmHg 78%
    02:00 +21°C° 0 mm 3 mps 757 mmHg 80%
    03:00 +21°C° 0 mm 2 mps 757 mmHg 81%
    04:00 +20°C° 0 mm 2 mps 757 mmHg 83%
    05:00 +20°C° 0 mm 2 mps 757 mmHg 84%
    06:00 +21°C° 0 mm 3 mps 757 mmHg 81%
    07:00 +21°C° 0 mm 3 mps 757 mmHg 77%
    08:00 +22°C° 0 mm 3 mps 757 mmHg 73%
    09:00 +25°C° 0 mm 3 mps 757 mmHg 63%
    10:00 +26°C° 0 mm 3 mps 757 mmHg 53%
    11:00 +28°C° 0 mm 3 mps 757 mmHg 44%
    12:00 +29°C° 0 mm 4 mps 757 mmHg 39%
    13:00 +30°C° 0 mm 4 mps 756 mmHg 33%
    14:00 +32°C° 0 mm 4 mps 756 mmHg 28%
    15:00 +30°C° 0 mm 4 mps 756 mmHg 29%
    16:00 +30°C° 0 mm 4 mps 756 mmHg 30%
    17:00 +29°C° 0 mm 4 mps 756 mmHg 31%
    18:00 +27°C° 0 mm 5 mps 756 mmHg 40%
    19:00 +26°C° 0 mm 5 mps 757 mmHg 50%
    20:00 +23°C° 0 mm 6 mps 757 mmHg 59%
    21:00 +23°C° 0 mm 5 mps 757 mmHg 62%
    22:00 +22°C° 0 mm 4 mps 757 mmHg 64%
    23:00 +21°C° 0 mm 4 mps 757 mmHg 67%
    Show more